Location: Berlise
(49.6641°N, 4.1077°E)
Time: 03:14:04
(UTC+00:00)

Cosmos 1464 Rocket - Pass Details

Date: 27 January 2021
Orbit: 953 x 1000 km, 82.9° (Epoch: 24 February)

Event Time Altitude Azimuth Distance (km) Brightness Sun altitude
Exits shadow 04:13:47 41° 169° (SSE) 1,348 4.7 -30.4°
Maximum altitude 04:15:59 73° 95° (E) 1,003 4.1 -30.1°
Drops below altitude 10° 04:22:09 10° 13° (NNE) 2,714 6.5 -29.1°
Sets 04:24:41 0° 11° (NNE) 3,671 7.2 -28.7°
